Hourly Weather Mochudi

Today, 10 August, Monday

Time Temperature Precipitation Wind Pressure Humidity
00:00 +14°C° 0 mm 3 mps 681 mmHg 31%
01:00 +13°C° 0 mm 2 mps 680 mmHg 31%
02:00 +12°C° 0 mm 2 mps 680 mmHg 33%
03:00 +10°C° 0 mm 2 mps 680 mmHg 31%
04:00 +9°C° 0 mm 2 mps 680 mmHg 29%
05:00 +9°C° 0 mm 2 mps 680 mmHg 27%
06:00 +9°C° 0 mm 3 mps 681 mmHg 26%
07:00 +9°C° 0 mm 3 mps 681 mmHg 25%
08:00 +10°C° 0 mm 3 mps 682 mmHg 24%
09:00 +14°C° 0 mm 3 mps 683 mmHg 20%
10:00 +18°C° 0 mm 3 mps 683 mmHg 16%
11:00 +23°C° 0 mm 2 mps 684 mmHg 12%
12:00 +25°C° 0 mm 2 mps 683 mmHg 10%
13:00 +27°C° 0 mm 2 mps 683 mmHg 8%
14:00 +29°C° 0 mm 1 mps 682 mmHg 6%
15:00 +28°C° 0 mm 1 mps 682 mmHg 6%
16:00 +28°C° 0 mm 1 mps 682 mmHg 6%
17:00 +27°C° 0 mm 1 mps 682 mmHg 6%
18:00 +24°C° 0 mm 1 mps 681 mmHg 7%
19:00 +20°C° 0 mm 1 mps 681 mmHg 9%
20:00 +16°C° 0 mm 1 mps 680 mmHg 10%
21:00 +15°C° 0 mm 1 mps 681 mmHg 11%
22:00 +15°C° 0 mm 1 mps 681 mmHg 12%
23:00 +14°C° 0 mm 1 mps 681 mmHg 12%

Tomorrow, 11 August, Tuesday

Time Temperature Precipitation Wind Pressure Humidity
00:00 +13°C° 0 mm 1 mps 681 mmHg 13%
01:00 +12°C° 0 mm 1 mps 680 mmHg 14%
02:00 +10°C° 0 mm 0 mps 680 mmHg 16%
03:00 +10°C° 0 mm 1 mps 680 mmHg 17%
04:00 +10°C° 0 mm 1 mps 680 mmHg 18%
05:00 +9°C° 0 mm 1 mps 680 mmHg 19%
06:00 +9°C° 0 mm 2 mps 681 mmHg 24%
07:00 +10°C° 0 mm 2 mps 682 mmHg 28%
08:00 +12°C° 0 mm 3 mps 683 mmHg 33%
09:00 +15°C° 0 mm 4 mps 684 mmHg 34%
10:00 +19°C° 0 mm 4 mps 684 mmHg 35%
11:00 +23°C° 0 mm 5 mps 685 mmHg 36%
12:00 +25°C° 0 mm 4 mps 684 mmHg 29%
13:00 +27°C° 0 mm 3 mps 683 mmHg 23%
14:00 +29°C° 0 mm 3 mps 683 mmHg 17%
15:00 +29°C° 0 mm 2 mps 682 mmHg 15%
16:00 +29°C° 0 mm 1 mps 682 mmHg 14%
17:00 +29°C° 0 mm 1 mps 682 mmHg 13%
18:00 +26°C° 0 mm 1 mps 681 mmHg 17%
19:00 +23°C° 0 mm 2 mps 681 mmHg 21%
20:00 +19°C° 0 mm 2 mps 680 mmHg 25%
21:00 +18°C° 0 mm 2 mps 680 mmHg 30%
22:00 +17°C° 0 mm 2 mps 681 mmHg 34%
23:00 +16°C° 0 mm 2 mps 681 mmHg 38%

Day after tomorrow, 12 August, Wednesday

Time Temperature Precipitation Wind Pressure Humidity
00:00 +15°C° 0 mm 2 mps 681 mmHg 42%
01:00 +14°C° 0 mm 2 mps 680 mmHg 45%
02:00 +14°C° 0 mm 2 mps 680 mmHg 48%
03:00 +13°C° 0 mm 2 mps 680 mmHg 51%
04:00 +12°C° 0 mm 1 mps 680 mmHg 54%
05:00 +11°C° 0 mm 1 mps 680 mmHg 58%
06:00 +12°C° 0 mm 1 mps 681 mmHg 55%
07:00 +13°C° 0 mm 1 mps 681 mmHg 51%
08:00 +14°C° 0 mm 1 mps 682 mmHg 48%
09:00 +19°C° 0 mm 1 mps 683 mmHg 40%
10:00 +22°C° 0 mm 1 mps 683 mmHg 31%
11:00 +26°C° 0 mm 1 mps 684 mmHg 22%
12:00 +28°C° 0 mm 2 mps 684 mmHg 19%
13:00 +30°C° 0 mm 2 mps 683 mmHg 15%
14:00 +33°C° 0 mm 3 mps 683 mmHg 11%
15:00 +31°C° 0 mm 3 mps 682 mmHg 11%
16:00 +31°C° 0 mm 3 mps 682 mmHg 10%
17:00 +31°C° 0 mm 3 mps 682 mmHg 10%
18:00 +28°C° 0 mm 3 mps 682 mmHg 12%
19:00 +25°C° 0 mm 3 mps 682 mmHg 15%
20:00 +21°C° 0 mm 2 mps 681 mmHg 17%
21:00 +19°C° 0 mm 2 mps 682 mmHg 17%
22:00 +18°C° 0 mm 2 mps 682 mmHg 18%
23:00 +17°C° 0 mm 2 mps 682 mmHg 18%

13 August, Thursday

Time Temperature Precipitation Wind Pressure Humidity
00:00 +16°C° 0 mm 2 mps 682 mmHg 18%
01:00 +15°C° 0 mm 2 mps 681 mmHg 18%
02:00 +14°C° 0 mm 1 mps 681 mmHg 18%
03:00 +13°C° 0 mm 2 mps 681 mmHg 18%
04:00 +13°C° 0 mm 2 mps 681 mmHg 17%
05:00 +12°C° 0 mm 2 mps 681 mmHg 17%
06:00 +13°C° 0 mm 2 mps 681 mmHg 16%
07:00 +14°C° 0 mm 2 mps 682 mmHg 15%
08:00 +15°C° 0 mm 2 mps 683 mmHg 13%
09:00 +19°C° 0 mm 3 mps 684 mmHg 11%
10:00 +22°C° 0 mm 3 mps 684 mmHg 9%
11:00 +27°C° 0 mm 3 mps 685 mmHg 7%
12:00 +28°C° 0 mm 3 mps 684 mmHg 6%
13:00 +29°C° 0 mm 3 mps 684 mmHg 5%
14:00 +31°C° 0 mm 3 mps 683 mmHg 4%
15:00 +30°C° 0 mm 3 mps 683 mmHg 4%
16:00 +30°C° 0 mm 3 mps 683 mmHg 4%
17:00 +29°C° 0 mm 2 mps 683 mmHg 4%
18:00 +26°C° 0 mm 2 mps 682 mmHg 5%
19:00 +21°C° 0 mm 2 mps 682 mmHg 6%
20:00 +18°C° 0 mm 2 mps 682 mmHg 6%
21:00 +16°C° 0 mm 2 mps 682 mmHg 8%
22:00 +15°C° 0 mm 1 mps 682 mmHg 9%
23:00 +14°C° 0 mm 1 mps 682 mmHg 10%

14 August, Friday

Time Temperature Precipitation Wind Pressure Humidity
00:00 +13°C° 0 mm 1 mps 682 mmHg 11%
01:00 +12°C° 0 mm 1 mps 681 mmHg 12%
02:00 +11°C° 0 mm 1 mps 681 mmHg 13%
03:00 +11°C° 0 mm 1 mps 681 mmHg 14%
04:00 +11°C° 0 mm 1 mps 681 mmHg 15%
05:00 +10°C° 0 mm 1 mps 681 mmHg 16%
06:00 +10°C° 0 mm 2 mps 682 mmHg 29%
07:00 +11°C° 0 mm 3 mps 682 mmHg 41%
08:00 +12°C° 0 mm 3 mps 683 mmHg 53%
09:00 +15°C° 0 mm 4 mps 683 mmHg 49%
10:00 +19°C° 0 mm 5 mps 684 mmHg 45%
11:00 +22°C° 0 mm 5 mps 684 mmHg 41%
12:00 +23°C° 0 mm 5 mps 684 mmHg 37%
13:00 +25°C° 0 mm 5 mps 683 mmHg 34%
14:00 +27°C° 0 mm 5 mps 682 mmHg 31%
15:00 +27°C° 0 mm 5 mps 681 mmHg 31%
16:00 +26°C° 0 mm 5 mps 681 mmHg 31%
17:00 +26°C° 0 mm 5 mps 680 mmHg 32%
18:00 +22°C° 0 mm 5 mps 680 mmHg 39%
19:00 +20°C° 0 mm 4 mps 680 mmHg 47%
20:00 +17°C° 0 mm 4 mps 680 mmHg 55%
21:00 +15°C° 0 mm 4 mps 679 mmHg 60%
22:00 +14°C° 0 mm 4 mps 679 mmHg 66%
23:00 +13°C° 0 mm 3 mps 679 mmHg 71%

15 August, Saturday

Time Temperature Precipitation Wind Pressure Humidity
00:00 +13°C° 0 mm 3 mps 679 mmHg 74%
01:00 +12°C° 0 mm 4 mps 678 mmHg 76%
02:00 +11°C° 0 mm 4 mps 678 mmHg 79%
03:00 +11°C° 0 mm 3 mps 677 mmHg 82%
04:00 +10°C° 0 mm 3 mps 677 mmHg 85%
05:00 +9°C° 0 mm 2 mps 676 mmHg 89%
06:00 +10°C° 0 mm 2 mps 677 mmHg 85%
07:00 +11°C° 0 mm 3 mps 677 mmHg 82%
08:00 +11°C° 0 mm 3 mps 678 mmHg 79%
09:00 +16°C° 0 mm 3 mps 678 mmHg 63%
10:00 +20°C° 0 mm 3 mps 679 mmHg 47%
11:00 +24°C° 0 mm 3 mps 679 mmHg 31%
12:00 +27°C° 0 mm 4 mps 678 mmHg 24%
13:00 +30°C° 0 mm 6 mps 678 mmHg 17%
14:00 +34°C° 0 mm 7 mps 677 mmHg 10%
15:00 +34°C° 0 mm 7 mps 676 mmHg 10%
16:00 +33°C° 0 mm 7 mps 675 mmHg 10%
17:00 +32°C° 0 mm 7 mps 675 mmHg 10%
18:00 +29°C° 0 mm 6 mps 675 mmHg 12%
19:00 +26°C° 0 mm 5 mps 675 mmHg 13%
20:00 +23°C° 0 mm 4 mps 675 mmHg 15%
21:00 +21°C° 0 mm 4 mps 675 mmHg 16%
22:00 +19°C° 0 mm 4 mps 674 mmHg 18%
23:00 +17°C° 0 mm 4 mps 674 mmHg 20%
Show more